sat.trackr.live / text

‹ back to catalog

STARLINK-36344

NORAD 67710 · 2026-025T

PAYLOAD ACTIVE UNKNOWN

§ Identity

Operator
Country
US
Launch date
2026-02-07
Launch site
AFWTR
Launch vehicle
Mass (kg)
RCS (m²)

Purposes: comms

External: N2YO · Heavens-Above · Gunter

§ Orbital elements

Epoch: 2026-05-24T20:22:14.685312Z

Period
93.91 min
Inclination
97.2819°
Eccentricity
0.0000282
Mean motion
15.33458260 rev/d
Perigee alt
465.3 km
Apogee alt
465.7 km
Semi-major
6,843.6 km
B*
7.8231e-4
RAAN
256.4595°
Arg perigee
151.3143°
Mean anomaly
208.8116°
Rev number
1,769

§ Raw data

STARLINK-363441 67710U 26025T   26144.84878108  .00025276  00000+0  78231-3 0  99922 67710  97.2819 256.4595 0000282 151.3143 208.8116 15.33458260 17691

JSON: /api/v1/satellites/67710 · /tle

For live sub-satellite position, see the globe view (requires WebGL).

§ Visibility from observer

Set your observer location to see the next 7 days of passes ≥ 10°. The values pass through the URL so the page stays shareable.

No JS? Fill the form by hand. The geolocation button needs JavaScript.